Вернуться в каталог

STARLINK-4429

АктивенСвязьSSO
NORAD 53495·PAYLOAD·🇺🇸 United States

Запущен Aug 12, 2022 с Vandenberg Space Force Base

Loading…

Ближайшие Пролёты (ближайшие 24 часа)

TLE

СвежийSource: CelesTrak SupGP

Эпоха: Sep 14, 2026, 21:38 UTC

1 53495C 22099AG  26257.90187500  .00596190  00000+0  34830-1 0  2575
2 53495  97.2856  12.0082 0001700  91.8650 140.3908 15.11690278    11

Отслеживайте STARLINK-4429 в реальном времени с AllMySat

Download on the App Store